Regional Weather Roundup
Issued by NWS

Home | Current Version | Previous Version | Graphics & Text | Print | Product List | Glossary On
Versions: 1 2 3 4 5 6 7 8 9 10 11 12 13 14 15 16 17 18 19 20 21 22 23 24 25 26 27 28 29 30 31 32 33 34 35 36 37 38 39 40 41 42 43 44 45 46 47 48 49 50
000
ASUS43 KDTX 260910
RWRMI
MICHIGAN HOURLY REGIONAL WEATHER ROUNDUP
NATIONAL WEATHER SERVICE DETROIT/PONTIAC MI
500 AM EDT SAT JUL 26 2014

NOTE: "FAIR" INDICATES FEW OR NO CLOUDS BELOW 12,000 FEET WITH NO
SIGNIFICANT WEATHER AND/OR OBSTRUCTION TO VISIBILITY.

MIZ047>049-052>055-059>063-066>070-074>076-081>083-261000-
SOUTHEAST LOWER MICHIGAN

CITY           SKY/WX    TMP DP  RH WIND       PRES   REMARKS
ADRIAN         CLEAR     59  56  89 SW3       29.94F
ALMA           CLEAR     59  57  91 S3        29.91R
ANN ARBOR      CLEAR     53  52  96 CALM      29.94S FOG
BAD AXE        MOCLDY    64  57  76 SW7       29.91S
DETROIT CITY   CLEAR     65  56  72 CALM      29.93F
DETROIT        PTCLDY    62  57  83 S6        29.94F
FLINT          CLEAR     61  55  81 S3        29.92F
GROSSE ILE     CLEAR     68  55  64 SW7       29.92F
HILLSDALE      CLEAR     58  58  99 CALM      29.93F
HOWELL         CLEAR     60  56  88 S3        29.92F

CITY           SKY/WX    TMP DP  RH WIND       PRES   REMARKS
JACKSON        CLEAR     59  56  89 S5        29.92F
LAMBERTVILLE   CLEAR     61  55  82 CALM      29.95S
LANSING        CLEAR     61  57  87 S6        29.91F
LAPEER         NOT AVBL
MASON          CLEAR     59  56  92 S3        29.92S
MONROE         CLEAR     59  57  94 CALM      29.93S
MT. CLEMENS    CLEAR     60  55  83 SW3       29.92F
PONTIAC        CLEAR     59  53  80 CALM      29.93F
PORT HOPE        N/A     66  56  70 SW6       29.88F
PORT HURON     PTCLDY    57  55  94 CALM      29.93F
TRI CITIES     CLEAR     63  57  81 S7        29.90F
YPSILANTI      CLEAR     63  56  78 S6        29.94F
$$
MIZ043>046-050>051-056>058-064>065-071>073-077>080-261000-
SOUTHWEST LOWER MICHIGAN

CITY           SKY/WX    TMP DP  RH WIND       PRES   REMARKS
BATTLE CREEK   CLEAR     62  57  83 S6        29.92F
BENTON HARBOR  PTCLDY    59  57  93 SE5       29.89F
BIG RAPIDS     PTCLDY    58  58 100 SW3       29.89S
COLDWATER      CLEAR     60  58  91 CALM      29.92F
HOLLAND        PTCLDY    62  58  86 CALM      29.90S
GRAND RAPIDS   CLEAR     62  58  86 S5        29.90F
KALAMAZOO      CLEAR     62  58  86 S5        29.91F
MARSHALL       CLEAR     59  56  91 S7        29.91F
MUSKEGON       CLEAR     65  60  84 S7        29.88F
$$
MIZ016>042-261000-
NORTHERN LOWER MICHIGAN

CITY           SKY/WX    TMP DP  RH WIND       PRES   REMARKS
ALPENA         CLOUDY    65  58  78 SW3       29.86F
BEAVER ISLAND  CLOUDY    62  60  94 SW7       29.82F
BELLAIRE       CLOUDY    67  58  72 S3        29.85S
CADILLAC       CLOUDY    63  59  89 SW7       29.88F
CHARLEVOIX     CLOUDY    67  59  77 SW3       29.87S
FRANKFORT      CLOUDY    65  60  83 SW6       29.85F
GAYLORD        CLOUDY    63  56  78 SW6       29.87F
GRAYLING       CLOUDY    64  59  85 SW7       29.88F
HARBOR SPRINGS CLOUDY    66  60  79 W3        29.84S
HOUGHTON LAKE  CLOUDY    63  58  83 SW8       29.89S
MANISTEE       CLOUDY    66  59  77 W6        29.87S
OSCODA         CLOUDY    65  57  77 CALM      29.88S
PELLSTON       CLOUDY    66  58  75 W5        29.84S
TRAVERSE CITY  CLOUDY    67  58  72 SW7       29.84F
$$
MIZ007>008-015-261000-
EASTERN UPPER MICHIGAN

CITY           SKY/WX    TMP DP  RH WIND       PRES   REMARKS
KINROSS        CLOUDY    63  61  94 SW5       29.82S
MACKINAC ISLAN CLOUDY    63  59  86 W7        29.83S
NEWBERRY       CLOUDY    60  59  97 SW6       29.81R FOG
S. S. MARIE    CLOUDY    62  58  86 VRB3      29.81F
$$
MIZ004>006-011>014-085-261000-
CENTRAL UPPER MICHIGAN

CITY           SKY/WX    TMP DP  RH WIND       PRES   REMARKS
MANISTIQUE     CLOUDY    59  58  97 CALM      29.79F FOG
ESCANABA       CLOUDY    64  59  82 CALM      29.80S
MENOMINEE      PTCLDY    64  61  88 W6        29.81S
SAWYER-GWINN   CLOUDY    64  61  90 SW5       29.79F
$$
MIZ001>003-009>011-084-261000-
WESTERN UPPER MICHIGAN

CITY           SKY/WX    TMP DP  RH WIND       PRES   REMARKS
IRON MOUNTAIN  MOCLDY    62  60  93 CALM      29.79F FOG
HOUGHTON       LGT RAIN  66  63  90 CALM      29.75F FOG
COPPER HARBOR    N/A     67  63  87 CALM      29.74S
$$

ABBREVIATIONS USED IN REMARKS
   TC - TEMPERATURE IN CELSIUS
  WCI - WIND CHILL INDEX
   HX - HEAT INDEX
  VSB - VISIBILITY



USA.gov is the U.S. government's official web portal to all federal, state and local government web resources and services.